Change the Weather History Date:

Sunday, January 19, 2014

  Actual Average Record
Temperature  
Mean Temperature 36 °F -  
Max Temperature 56 °F 28 °F 56 °F (2014)
Min Temperature 16 °F 4 °F -35 °F (1970)
Degree Days  
Heating Degree Days 29    
Moisture  
Dew Point 25 °F    
Average Humidity 71    
Maximum Humidity 96    
Minimum Humidity 32    
Precipitation  
Precipitation 0.00 in - - ()
Sea Level Pressure  
Sea Level Pressure 29.72 in    
Wind  
Wind Speed 9 mph (WSW)    
Max Wind Speed 23 mph    
Max Gust Speed 33 mph    
Visibility 10 miles    
Events      
Averages and records for this station are not official NWS values.
T = Trace of Precipitation, MM = Missing Value Source: NWS Daily Summary

Daily Weather History Graph

Daily Weather History Graph

Search for Another Location

Airport or City:

Trip Planner

Search our weather history database for the weather conditions in past years. The results will help you decide how hot, cold, wet, or windy it might be!

Date:

Astronomy

Jan. 19, 2014 Rise Set
Actual Time 7:47 AM CST 5:18 PM CST
Civil Twilight 7:16 AM CST 5:49 PM CST
Nautical Twilight 6:42 AM CST 6:24 PM CST
Astronomical Twilight 6:08 AM CST 6:58 PM CST
Moon 9:03 PM CST (1/19) 9:12 AM CST (1/19)
Length of Visible Light 10h 33m
Length of Day
9h 31m
Waning Gibbous, 89% of the Moon is Illuminated
Jan 19
Waning Gibbous
Jan 23
Last Quarter
Jan 30
New
Feb 6
First Quarter
Feb 14
Full

Hourly Weather History & Observations

Time (CST) Temp. Windchill Dew Point Humidity Pressure Visibility Wind Dir Wind Speed Gust Speed Precip Events Conditions
12:15 AM 18.5 °F 9.3 °F 17.2 °F 95% 29.90 in 10.0 mi SSW 6.9 mph - N/A   Clear
12:35 AM 18.5 °F 9.3 °F 17.4 °F 96% 29.88 in 10.0 mi SSW 6.9 mph - N/A   Clear
12:55 AM 18.3 °F 10.2 °F 17.1 °F 95% 29.88 in 10.0 mi SSW 5.8 mph - N/A   Clear
1:15 AM 17.1 °F 7.6 °F 15.8 °F 95% 29.87 in 10.0 mi SSW 6.9 mph - N/A   Clear
1:35 AM 16.3 °F 10.8 °F 15.4 °F 96% 29.86 in 10.0 mi SSW 3.5 mph - N/A   Clear
1:55 AM 16.7 °F 9.6 °F 15.6 °F 96% 29.85 in 10.0 mi SSW 4.6 mph - N/A   Clear
2:15 AM 17.6 °F 9.3 °F 16.5 °F 96% 29.84 in 10.0 mi South 5.8 mph - N/A   Clear
2:35 AM 17.8 °F 8.5 °F 16.7 °F 96% 29.84 in 10.0 mi SSW 6.9 mph - N/A   Clear
2:55 AM 18.5 °F 10.4 °F 17.4 °F 96% 29.82 in 10.0 mi South 5.8 mph - N/A   Clear
3:15 AM 18.5 °F 9.3 °F 17.2 °F 95% 29.81 in 10.0 mi SW 6.9 mph - N/A   Clear
3:35 AM 19.8 °F 9.9 °F 18.5 °F 95% 29.81 in 10.0 mi SSW 8.1 mph - N/A   Clear
3:55 AM 19.6 °F 11.7 °F 18.1 °F 94% 29.80 in 10.0 mi SSW 5.8 mph - N/A   Clear
4:15 AM 20.1 °F 8.8 °F 18.3 °F 93% 29.78 in 10.0 mi SW 10.4 mph - N/A   Clear
4:35 AM 20.7 °F 11.9 °F 18.5 °F 91% 29.77 in 10.0 mi SSW 6.9 mph - N/A   Clear
4:55 AM 20.5 °F 10.0 °F 18.3 °F 91% 29.75 in 10.0 mi SSW 9.2 mph - N/A   Clear
5:15 AM 21.9 °F 11.0 °F 19.4 °F 90% 29.75 in 10.0 mi SSW 10.4 mph - N/A   Clear
5:35 AM 21.9 °F 11.7 °F 19.8 °F 91% 29.73 in 10.0 mi SSW 9.2 mph - N/A   Clear
5:55 AM 22.3 °F 13.0 °F 19.4 °F 89% 29.72 in 10.0 mi SSW 8.1 mph - N/A   Clear
6:15 AM 22.3 °F 12.2 °F 19.6 °F 89% 29.72 in 10.0 mi SW 9.2 mph - N/A   Clear
6:35 AM 23.5 °F 13.0 °F 19.4 °F 84% 29.73 in 10.0 mi SW 10.4 mph - N/A   Clear
6:55 AM 23.4 °F 12.2 °F 19.6 °F 85% 29.72 in 10.0 mi SW 11.5 mph - N/A   Clear
7:15 AM 23.7 °F 15.6 °F 19.6 °F 84% 29.72 in 10.0 mi SW 6.9 mph - N/A   Clear
7:35 AM 23.7 °F 15.6 °F 19.6 °F 84% 29.72 in 10.0 mi SW 6.9 mph - N/A   Clear
7:55 AM 23.9 °F 15.8 °F 20.1 °F 85% 29.71 in 10.0 mi SSW 6.9 mph - N/A   Clear
8:15 AM 25.0 °F 15.5 °F 20.8 °F 84% 29.69 in 10.0 mi SSW 9.2 mph - N/A   Clear
8:35 AM 27.3 °F 18.4 °F 21.9 °F 80% 29.70 in 10.0 mi SW 9.2 mph - N/A   Clear
8:55 AM 29.1 °F 19.4 °F 23.0 °F 78% 29.70 in 10.0 mi SW 11.5 mph - N/A   Clear
9:15 AM 30.2 °F 21.9 °F 23.4 °F 76% 29.70 in 10.0 mi WSW 9.2 mph - N/A   Clear
9:35 AM 30.9 °F 26.2 °F 24.8 °F 78% 29.69 in 10.0 mi SW 4.6 mph - N/A   Clear
9:55 AM 33.6 °F 25.0 °F 26.1 °F 74% 29.69 in 10.0 mi SW 11.5 mph - N/A   Clear
10:15 AM 35.4 °F 29.0 °F 27.3 °F 72% 29.69 in 10.0 mi WSW 8.1 mph - N/A   Clear
10:35 AM 36.9 °F 30.1 °F 27.9 °F 70% 29.69 in 10.0 mi WSW 9.2 mph - N/A   Clear
10:55 AM 38.3 °F 31.9 °F 28.8 °F 69% 29.68 in 10.0 mi WSW 9.2 mph - N/A   Clear
11:15 AM 40.8 °F 34.5 °F 29.8 °F 65% 29.67 in 10.0 mi WSW 10.4 mph 17.3 mph N/A   Clear
11:35 AM 42.3 °F 35.1 °F 30.9 °F 64% 29.65 in 10.0 mi WSW 13.8 mph 17.3 mph N/A   Clear
11:55 AM 44.1 °F 38.1 °F 31.6 °F 62% 29.64 in 10.0 mi WSW 11.5 mph 19.6 mph N/A   Clear
12:15 PM 46.9 °F - 32.5 °F 57% 29.62 in 10.0 mi WSW 9.2 mph - N/A   Clear
12:35 PM 50.4 °F - 31.1 °F 48% 29.62 in 10.0 mi West 9.2 mph 20.7 mph N/A   Clear
12:55 PM 52.0 °F - 30.6 °F 44% 29.61 in 10.0 mi West 16.1 mph 21.9 mph N/A   Clear
1:15 PM 53.1 °F - 30.0 °F 41% 29.59 in 10.0 mi West 13.8 mph 25.3 mph N/A   Clear
1:35 PM 54.5 °F - 29.5 °F 38% 29.59 in 10.0 mi West 13.8 mph 24.2 mph N/A   Clear
1:55 PM 55.8 °F - 28.8 °F 36% 29.58 in 10.0 mi West 20.7 mph 25.3 mph N/A   Clear
2:15 PM 56.3 °F - 27.5 °F 33% 29.59 in 10.0 mi WNW 23.0 mph 33.4 mph N/A   Clear
2:35 PM 56.3 °F - 27.0 °F 32% 29.59 in 10.0 mi WNW 20.7 mph 33.4 mph N/A   Clear
2:55 PM 55.6 °F - 26.8 °F 33% 29.60 in 10.0 mi WNW 21.9 mph 31.1 mph N/A   Clear
3:15 PM 53.8 °F - 26.6 °F 35% 29.60 in 10.0 mi WNW 19.6 mph 27.6 mph N/A   Clear
3:35 PM 52.9 °F - 26.8 °F 36% 29.61 in 10.0 mi NW 17.3 mph 29.9 mph N/A   Clear
3:55 PM 51.8 °F - 27.5 °F 39% 29.63 in 10.0 mi NW 18.4 mph 27.6 mph N/A   Clear
4:15 PM 51.4 °F - 27.9 °F 40% 29.63 in 10.0 mi WNW 21.9 mph 31.1 mph N/A   Clear
4:35 PM 50.2 °F - 28.4 °F 43% 29.64 in 10.0 mi NW 17.3 mph 27.6 mph N/A   Clear
4:55 PM 47.8 °F - 28.2 °F 47% 29.66 in 10.0 mi NW 19.6 mph 31.1 mph N/A   Clear
5:15 PM 46.2 °F 39.0 °F 28.6 °F 50% 29.67 in 10.0 mi WNW 18.4 mph 26.5 mph N/A   Clear
5:35 PM 44.8 °F 36.9 °F 28.4 °F 53% 29.67 in 10.0 mi NW 19.6 mph 28.8 mph N/A   Clear
5:55 PM 43.5 °F 35.8 °F 28.4 °F 55% 29.69 in 10.0 mi WNW 17.3 mph 28.8 mph N/A   Clear
6:15 PM 42.1 °F 34.9 °F 28.4 °F 58% 29.69 in 10.0 mi NW 13.8 mph 25.3 mph N/A   Clear
6:35 PM 41.2 °F 35.5 °F 28.4 °F 60% 29.71 in 10.0 mi NW 9.2 mph 18.4 mph N/A   Clear
6:55 PM 40.1 °F 33.6 °F 28.4 °F 63% 29.72 in 10.0 mi WNW 10.4 mph 17.3 mph N/A   Clear
7:15 PM 39.2 °F 32.5 °F 28.8 °F 66% 29.73 in 10.0 mi WNW 10.4 mph - N/A   Clear
7:35 PM 39.0 °F 32.3 °F 28.9 °F 67% 29.74 in 10.0 mi WNW 10.4 mph - N/A   Clear
7:55 PM 39.2 °F 32.5 °F 29.1 °F 67% 29.75 in 10.0 mi WNW 10.4 mph 17.3 mph N/A   Clear
8:15 PM 38.5 °F 31.6 °F 29.3 °F 70% 29.75 in 10.0 mi NW 10.4 mph - N/A   Clear
8:35 PM 38.5 °F 31.6 °F 29.3 °F 70% 29.75 in 10.0 mi NW 10.4 mph 18.4 mph N/A   Clear
8:55 PM 38.3 °F 31.9 °F 29.1 °F 70% 29.75 in 10.0 mi NW 9.2 mph - N/A   Clear
9:15 PM 36.9 °F 29.6 °F 28.9 °F 73% 29.75 in 10.0 mi WNW 10.4 mph 16.1 mph N/A   Clear
9:35 PM 37.6 °F 29.6 °F 29.1 °F 72% 29.76 in 10.0 mi NW 12.7 mph - N/A   Clear
9:55 PM 36.7 °F 29.9 °F 29.1 °F 74% 29.77 in 10.0 mi NW 9.2 mph - N/A   Clear
10:15 PM 36.0 °F 29.6 °F 28.9 °F 76% 29.78 in 10.0 mi WNW 8.1 mph - N/A   Clear
10:35 PM 34.5 °F 28.6 °F 28.6 °F 79% 29.78 in 10.0 mi WNW 6.9 mph - N/A   Clear
10:55 PM 33.8 °F 27.7 °F 29.1 °F 83% 29.78 in 10.0 mi WNW 6.9 mph - N/A   Clear
11:15 PM 32.9 °F 27.5 °F 28.9 °F 85% 29.79 in 10.0 mi WNW 5.8 mph - N/A   Clear
11:35 PM 32.2 °F 26.7 °F 28.4 °F 86% 29.80 in 10.0 mi WNW 5.8 mph - N/A   Clear
11:55 PM 32.9 °F 27.5 °F 28.8 °F 85% 29.80 in 10.0 mi WNW 5.8 mph - N/A   Clear